Time,TemperatureF,DewpointF,PressureIn,WindDirection,WindDirectionDegrees,WindSpeedMPH,WindSpeedGustMPH,Humidity,HourlyPrecipIn,Conditions,Clouds,dailyrainin,SolarRadiationWatts/m^2,SoftwareType,DateUTC
2013-06-30 00:00:00,72.5,52.3,29.86,North,355,5.0,10.0,49,0.00,,---,0.00,0.00,VWS V14.01,2013-06-30 05:00:00,
2013-06-30 00:02:00,72.5,52.8,29.87,NNE,18,5.0,7.0,50,0.00,,---,0.00,0.00,VWS V14.01,2013-06-30 05:02:00,
2013-06-30 00:07:00,72.3,52.6,29.87,NNE,12,6.0,8.0,50,0.00,,---,0.00,0.00,VWS V14.01,2013-06-30 05:07:00,
2013-06-30 00:12:00,72.1,52.5,29.87,North,11,3.0,8.0,50,0.00,,---,0.00,0.00,VWS V14.01,2013-06-30 05:12:00,
2013-06-30 00:17:00,72.1,53.0,29.87,North,11,3.0,8.0,51,0.00,,---,0.00,0.00,VWS V14.01,2013-06-30 05:17:00,
2013-06-30 00:22:00,72.1,53.0,29.87,North,11,5.0,8.0,51,0.00,,---,0.00,0.00,VWS V14.01,2013-06-30 05:22:00,
2013-06-30 00:27:00,72.1,53.0,29.87,NE,34,2.0,8.0,51,0.00,,---,0.00,0.00,VWS V14.01,2013-06-30 05:27:00,
2013-06-30 00:30:00,72.0,52.9,29.87,NNW,344,2.0,8.0,51,0.00,,---,0.00,0.00,VWS V14.01,2013-06-30 05:30:00,
2013-06-30 00:32:00,72.0,52.9,29.87,NNW,344,4.0,6.0,51,0.00,,---,0.00,0.00,VWS V14.01,2013-06-30 05:32:00,
2013-06-30 00:37:00,72.0,52.9,29.87,NNW,331,5.0,8.0,51,0.00,,---,0.00,0.00,VWS V14.01,2013-06-30 05:37:00,
2013-06-30 00:42:00,71.6,53.1,29.87,NNW,344,6.0,8.0,52,0.00,,---,0.00,0.00,VWS V14.01,2013-06-30 05:42:00,
2013-06-30 00:47:00,71.3,52.8,29.87,North,351,4.0,8.0,52,0.00,,---,0.00,0.00,VWS V14.01,2013-06-30 05:47:00,
2013-06-30 00:52:00,70.9,52.9,29.87,NNW,343,5.0,8.0,53,0.00,,---,0.00,0.00,VWS V14.01,2013-06-30 05:52:00,
2013-06-30 00:57:00,70.6,53.2,29.87,NNW,339,5.0,8.0,54,0.00,,---,0.00,0.00,VWS V14.01,2013-06-30 05:57:00,
2013-06-30 01:00:00,70.4,53.0,29.87,North,355,4.0,8.0,54,0.00,,---,0.00,0.00,VWS V14.01,2013-06-30 06:00:00,
2013-06-30 01:02:00,70.3,53.4,29.86,NNW,348,4.0,6.0,55,0.00,,---,0.00,0.00,VWS V14.01,2013-06-30 06:02:00,
2013-06-30 01:07:00,69.9,53.0,29.87,NNW,348,4.0,6.0,55,0.00,,---,0.00,0.00,VWS V14.01,2013-06-30 06:07:00,
2013-06-30 01:12:00,69.8,52.9,29.87,NNW,348,4.0,6.0,55,0.00,,---,0.00,0.00,VWS V14.01,2013-06-30 06:12:00,
2013-06-30 01:17:00,69.8,53.4,29.87,NNW,348,5.0,7.0,56,0.00,,---,0.00,0.00,VWS V14.01,2013-06-30 06:17:00,
2013-06-30 01:22:00,69.8,53.4,29.87,NNW,348,4.0,7.0,56,0.00,,---,0.00,0.00,VWS V14.01,2013-06-30 06:22:00,
2013-06-30 01:27:00,69.4,53.0,29.87,NNW,337,6.0,8.0,56,0.00,,---,0.00,0.00,VWS V14.01,2013-06-30 06:27:00,
2013-06-30 01:30:00,69.4,53.5,29.87,NNW,337,6.0,8.0,57,0.00,,---,0.00,0.00,VWS V14.01,2013-06-30 06:30:00,
2013-06-30 01:32:00,69.3,53.4,29.87,NNW,342,7.0,8.0,57,0.00,,---,0.00,0.00,VWS V14.01,2013-06-30 06:32:00,
2013-06-30 01:37:00,69.1,53.2,29.87,NNW,340,4.0,8.0,57,0.00,,---,0.00,0.00,VWS V14.01,2013-06-30 06:37:00,
2013-06-30 01:42:00,68.6,53.2,29.87,NNW,334,4.0,8.0,58,0.00,,---,0.00,0.00,VWS V14.01,2013-06-30 06:42:00,
2013-06-30 01:47:00,68.3,53.4,29.88,NNW,331,6.0,8.0,59,0.00,,---,0.00,0.00,VWS V14.01,2013-06-30 06:47:00,
2013-06-30 01:52:00,68.1,53.2,29.88,NNW,331,2.0,8.0,59,0.00,,---,0.00,0.00,VWS V14.01,2013-06-30 06:52:00,
2013-06-30 01:58:00,67.8,53.4,29.88,NNW,329,3.0,8.0,60,0.00,,---,0.00,0.00,VWS V14.01,2013-06-30 06:58:00,
2013-06-30 02:00:00,67.8,53.4,29.88,NNW,327,5.0,8.0,60,0.00,,---,0.00,0.00,VWS V14.01,2013-06-30 07:00:00,
2013-06-30 02:03:00,67.6,53.2,29.87,NNW,327,5.0,6.0,60,0.00,,---,0.00,0.00,VWS V14.01,2013-06-30 07:03:00,
2013-06-30 02:08:00,67.4,53.5,29.87,NNW,327,4.0,6.0,61,0.00,,---,0.00,0.00,VWS V14.01,2013-06-30 07:08:00,
2013-06-30 02:13:00,67.4,53.5,29.87,NNW,337,5.0,6.0,61,0.00,,---,0.00,0.00,VWS V14.01,2013-06-30 07:13:00,
2013-06-30 02:18:00,67.4,53.5,29.87,NNW,340,5.0,7.0,61,0.00,,---,0.00,0.00,VWS V14.01,2013-06-30 07:18:00,
2013-06-30 02:22:00,67.3,53.4,29.87,NNW,342,5.0,9.0,61,0.00,,---,0.00,0.00,VWS V14.01,2013-06-30 07:22:00,
2013-06-30 02:28:00,67.1,53.7,29.87,North,5,5.0,9.0,62,0.00,,---,0.00,0.00,VWS V14.01,2013-06-30 07:28:00,
2013-06-30 02:30:00,67.1,53.7,29.87,North,355,6.0,9.0,62,0.00,,---,0.00,0.00,VWS V14.01,2013-06-30 07:30:00,
2013-06-30 02:33:00,67.1,53.7,29.87,North,355,5.0,7.0,62,0.00,,---,0.00,0.00,VWS V14.01,2013-06-30 07:33:00,
2013-06-30 02:38:00,67.1,53.7,29.87,NNW,344,4.0,7.0,62,0.00,,---,0.00,0.00,VWS V14.01,2013-06-30 07:38:00,
2013-06-30 02:43:00,67.3,53.8,29.87,NNE,13,5.0,7.0,62,0.00,,---,0.00,0.00,VWS V14.01,2013-06-30 07:43:00,
2013-06-30 02:48:00,67.3,53.8,29.87,NNW,331,8.0,8.0,62,0.00,,---,0.00,0.00,VWS V14.01,2013-06-30 07:48:00,
2013-06-30 02:53:00,67.3,53.4,29.87,NNW,334,8.0,9.0,61,0.00,,---,0.00,0.00,VWS V14.01,2013-06-30 07:53:00,
2013-06-30 02:58:00,67.3,53.8,29.86,NNW,339,4.0,9.0,62,0.00,,---,0.00,0.00,VWS V14.01,2013-06-30 07:58:00,
2013-06-30 03:00:00,67.1,53.7,29.86,NNW,330,8.0,9.0,62,0.00,,---,0.00,0.00,VWS V14.01,2013-06-30 08:00:00,
2013-06-30 03:03:00,67.1,53.7,29.87,NW,309,8.0,8.0,62,0.00,,---,0.00,0.00,VWS V14.01,2013-06-30 08:03:00,
2013-06-30 03:08:00,66.8,53.4,29.87,NNW,341,6.0,9.0,62,0.00,,---,0.00,0.00,VWS V14.01,2013-06-30 08:08:00,
2013-06-30 03:13:00,66.6,53.6,29.87,NNW,329,8.0,9.0,63,0.00,,---,0.00,0.00,VWS V14.01,2013-06-30 08:13:00,
2013-06-30 03:18:00,66.3,53.8,29.87,NNW,336,7.0,10.0,64,0.00,,---,0.00,0.00,VWS V14.01,2013-06-30 08:18:00,
2013-06-30 03:23:00,66.0,53.5,29.87,North,349,6.0,10.0,64,0.00,,---,0.00,0.00,VWS V14.01,2013-06-30 08:23:00,
2013-06-30 03:28:00,66.0,53.9,29.87,NNW,333,6.0,10.0,65,0.00,,---,0.00,0.00,VWS V14.01,2013-06-30 08:28:00,
2013-06-30 03:30:00,65.8,53.7,29.87,NNW,338,5.0,10.0,65,0.00,,---,0.00,0.00,VWS V14.01,2013-06-30 08:30:00,
2013-06-30 03:33:00,65.8,53.7,29.87,NNW,336,6.0,8.0,65,0.00,,---,0.00,0.00,VWS V14.01,2013-06-30 08:33:00,
2013-06-30 03:38:00,65.6,53.5,29.87,NNW,337,5.0,8.0,65,0.00,,---,0.00,0.00,VWS V14.01,2013-06-30 08:38:00,
2013-06-30 03:43:00,65.5,53.8,29.88,NNW,332,4.0,8.0,66,0.00,,---,0.00,0.00,VWS V14.01,2013-06-30 08:43:00,
2013-06-30 03:48:00,65.3,53.7,29.88,NNW,334,4.0,8.0,66,0.00,,---,0.00,0.00,VWS V14.01,2013-06-30 08:48:00,
2013-06-30 03:53:00,65.2,54.0,29.87,NNW,327,3.0,8.0,67,0.00,,---,0.00,0.00,VWS V14.01,2013-06-30 08:53:00,
2013-06-30 03:58:00,65.0,53.8,29.87,NW,321,3.0,8.0,67,0.00,,---,0.00,0.00,VWS V14.01,2013-06-30 08:58:00,
2013-06-30 04:00:00,64.8,53.6,29.88,NW,320,0.0,8.0,67,0.00,,---,0.00,0.00,VWS V14.01,2013-06-30 09:00:00,
2013-06-30 04:03:00,64.8,54.0,29.87,NW,321,5.0,6.0,68,0.00,,---,0.00,0.00,VWS V14.01,2013-06-30 09:03:00,
2013-06-30 04:08:00,64.7,53.9,29.87,NNW,329,4.0,7.0,68,0.00,,---,0.00,0.00,VWS V14.01,2013-06-30 09:08:00,
2013-06-30 04:13:00,64.7,53.9,29.87,NNW,348,3.0,7.0,68,0.00,,---,0.00,0.00,VWS V14.01,2013-06-30 09:13:00,
2013-06-30 04:18:00,64.7,53.9,29.88,NNW,338,5.0,7.0,68,0.00,,---,0.00,0.00,VWS V14.01,2013-06-30 09:18:00,
2013-06-30 04:23:00,64.7,53.9,29.88,NW,320,3.0,7.0,68,0.00,,---,0.00,0.00,VWS V14.01,2013-06-30 09:23:00,
2013-06-30 04:28:00,64.3,53.9,29.88,NW,304,5.0,7.0,69,0.00,,---,0.00,0.00,VWS V14.01,2013-06-30 09:28:00,
2013-06-30 04:30:00,64.2,53.8,29.88,NNW,338,4.0,7.0,69,0.00,,---,0.00,0.00,VWS V14.01,2013-06-30 09:30:00,
2013-06-30 04:33:00,64.0,54.0,29.88,NNW,334,3.0,5.0,70,0.00,,---,0.00,0.00,VWS V14.01,2013-06-30 09:33:00,
2013-06-30 04:38:00,63.9,53.9,29.88,NNW,334,5.0,5.0,70,0.00,,---,0.00,0.00,VWS V14.01,2013-06-30 09:38:00,
2013-06-30 04:43:00,63.7,54.1,29.88,NNW,344,3.0,7.0,71,0.00,,---,0.00,0.00,VWS V14.01,2013-06-30 09:43:00,
2013-06-30 04:48:00,63.7,54.1,29.88,NNW,327,2.0,7.0,71,0.00,,---,0.00,0.00,VWS V14.01,2013-06-30 09:48:00,
2013-06-30 04:53:00,63.7,54.1,29.88,NNW,329,4.0,7.0,71,0.00,,---,0.00,0.00,VWS V14.01,2013-06-30 09:53:00,
2013-06-30 04:58:00,63.7,54.1,29.89,NNW,329,3.0,7.0,71,0.00,,---,0.00,0.00,VWS V14.01,2013-06-30 09:58:00,
2013-06-30 05:00:00,63.7,54.1,29.89,NNW,329,3.0,7.0,71,0.00,,---,0.00,0.00,VWS V14.01,2013-06-30 10:00:00,
2013-06-30 05:03:00,63.7,54.1,29.89,NNW,329,4.0,4.0,71,0.00,,---,0.00,0.00,VWS V14.01,2013-06-30 10:03:00,
2013-06-30 05:08:00,63.7,54.1,29.89,NNW,329,3.0,6.0,71,0.00,,---,0.00,0.00,VWS V14.01,2013-06-30 10:08:00,
2013-06-30 05:13:00,63.7,54.1,29.89,NNW,336,7.0,8.0,71,0.00,,---,0.00,0.00,VWS V14.01,2013-06-30 10:13:00,
2013-06-30 05:18:00,63.7,54.1,29.89,North,11,6.0,8.0,71,0.00,,---,0.00,0.00,VWS V14.01,2013-06-30 10:18:00,
2013-06-30 05:23:00,63.5,53.9,29.89,NNW,348,5.0,8.0,71,0.00,,---,0.00,0.00,VWS V14.01,2013-06-30 10:23:00,
2013-06-30 05:28:00,63.5,54.3,29.89,North,349,5.0,8.0,72,0.00,,---,0.00,0.00,VWS V14.01,2013-06-30 10:28:00,
2013-06-30 05:30:00,63.5,54.3,29.89,NNW,338,5.0,8.0,72,0.00,,---,0.00,0.00,VWS V14.01,2013-06-30 10:30:00,
2013-06-30 05:33:00,63.7,54.1,29.89,NNW,338,2.0,6.0,71,0.00,,---,0.00,0.00,VWS V14.01,2013-06-30 10:33:00,
2013-06-30 05:38:00,63.7,54.1,29.89,NNW,329,5.0,7.0,71,0.00,,---,0.00,0.00,VWS V14.01,2013-06-30 10:38:00,
2013-06-30 05:43:00,63.4,54.2,29.90,NNW,348,3.0,7.0,72,0.00,,---,0.00,0.00,VWS V14.01,2013-06-30 10:43:00,
2013-06-30 05:48:00,63.2,54.0,29.89,NNW,348,4.0,7.0,72,0.00,,---,0.00,0.00,VWS V14.01,2013-06-30 10:48:00,
2013-06-30 05:53:00,63.1,54.3,29.90,NNW,335,5.0,8.0,73,0.00,,---,0.00,0.00,VWS V14.01,2013-06-30 10:53:00,
2013-06-30 05:58:00,62.9,54.1,29.90,North,355,8.0,10.0,73,0.00,,---,0.00,0.00,VWS V14.01,2013-06-30 10:58:00,
2013-06-30 06:00:00,62.9,54.1,29.90,North,355,6.0,10.0,73,0.00,,---,0.00,0.00,VWS V14.01,2013-06-30 11:00:00,
2013-06-30 06:03:00,62.7,54.3,29.90,NNW,338,7.0,9.0,74,0.00,,---,0.00,0.00,VWS V14.01,2013-06-30 11:03:00,
2013-06-30 06:08:00,62.9,54.5,29.90,NNW,346,6.0,9.0,74,0.00,,---,0.00,0.00,VWS V14.01,2013-06-30 11:08:00,
2013-06-30 06:13:00,62.7,54.3,29.90,North,350,3.0,9.0,74,0.00,,---,0.00,7.00,VWS V14.01,2013-06-30 11:13:00,
2013-06-30 06:18:00,62.6,54.2,29.91,NNW,327,5.0,9.0,74,0.00,,---,0.00,11.00,VWS V14.01,2013-06-30 11:18:00,
2013-06-30 06:23:00,62.6,54.2,29.91,NNW,329,7.0,9.0,74,0.00,,---,0.00,14.00,VWS V14.01,2013-06-30 11:23:00,
2013-06-30 06:28:00,62.4,54.4,29.91,NW,325,4.0,9.0,75,0.00,,---,0.00,21.00,VWS V14.01,2013-06-30 11:28:00,
2013-06-30 06:30:00,62.4,54.4,29.91,NNW,336,5.0,9.0,75,0.00,,---,0.00,23.00,VWS V14.01,2013-06-30 11:30:00,
2013-06-30 06:33:00,62.4,54.4,29.91,NNW,335,3.0,6.0,75,0.00,,---,0.00,26.00,VWS V14.01,2013-06-30 11:33:00,
2013-06-30 06:38:00,62.4,54.4,29.91,WNW,290,4.0,6.0,75,0.00,,---,0.00,37.00,VWS V14.01,2013-06-30 11:38:00,
2013-06-30 06:43:00,62.4,54.4,29.92,WNW,292,5.0,6.0,75,0.00,,---,0.00,44.00,VWS V14.01,2013-06-30 11:43:00,
2013-06-30 06:48:00,62.1,54.1,29.92,WNW,292,5.0,7.0,75,0.00,,---,0.00,54.00,VWS V14.01,2013-06-30 11:48:00,
2013-06-30 06:53:00,62.1,54.5,29.92,NW,307,7.0,8.0,76,0.00,,---,0.00,67.00,VWS V14.01,2013-06-30 11:53:00,
2013-06-30 06:58:00,62.3,54.3,29.92,NNW,335,5.0,9.0,75,0.00,,---,0.00,77.00,VWS V14.01,2013-06-30 11:58:00,
2013-06-30 07:00:00,62.3,54.3,29.92,NNW,335,1.0,9.0,75,0.00,,---,0.00,83.00,VWS V14.01,2013-06-30 12:00:00,
2013-06-30 07:03:00,62.4,54.4,29.92,NNW,335,1.0,5.0,75,0.00,,---,0.00,91.00,VWS V14.01,2013-06-30 12:03:00,
2013-06-30 07:08:00,62.7,54.7,29.92,NW,323,3.0,7.0,75,0.00,,---,0.00,104.00,VWS V14.01,2013-06-30 12:08:00,
2013-06-30 07:13:00,63.1,55.1,29.92,NW,323,2.0,7.0,75,0.00,,---,0.00,121.00,VWS V14.01,2013-06-30 12:13:00,
2013-06-30 07:18:00,63.2,54.8,29.93,NW,315,4.0,7.0,74,0.00,,---,0.00,139.00,VWS V14.01,2013-06-30 12:18:00,
2013-06-30 07:23:00,63.5,55.1,29.93,NNW,341,3.0,10.0,74,0.00,,---,0.00,158.00,VWS V14.01,2013-06-30 12:23:00,
2013-06-30 07:28:00,63.9,55.1,29.93,NW,321,7.0,10.0,73,0.00,,---,0.00,171.00,VWS V14.01,2013-06-30 12:28:00,
2013-06-30 07:30:00,63.9,55.1,29.93,NW,321,3.0,10.0,73,0.00,,---,0.00,171.00,VWS V14.01,2013-06-30 12:30:00,
2013-06-30 07:33:00,64.0,55.2,29.93,North,355,2.0,10.0,73,0.00,,---,0.00,181.00,VWS V14.01,2013-06-30 12:33:00,
2013-06-30 07:38:00,64.3,55.1,29.94,NNW,331,6.0,10.0,72,0.00,,---,0.00,195.00,VWS V14.01,2013-06-30 12:38:00,
2013-06-30 07:43:00,64.5,55.3,29.94,NNW,333,8.0,11.0,72,0.00,,---,0.00,209.00,VWS V14.01,2013-06-30 12:43:00,
2013-06-30 07:49:00,64.8,55.6,29.94,NNW,348,4.0,11.0,72,0.00,,---,0.00,223.00,VWS V14.01,2013-06-30 12:49:00,
2013-06-30 07:54:00,65.3,55.7,29.94,NNW,344,4.0,11.0,71,0.00,,---,0.00,239.00,VWS V14.01,2013-06-30 12:54:00,
2013-06-30 07:59:00,65.6,55.6,29.94,NW,318,6.0,11.0,70,0.00,,---,0.00,255.00,VWS V14.01,2013-06-30 12:59:00,
2013-06-30 08:00:00,65.6,55.6,29.94,NNW,338,5.0,11.0,70,0.00,,---,0.00,258.00,VWS V14.01,2013-06-30 13:00:00,
2013-06-30 08:04:00,65.8,55.8,29.94,North,11,3.0,7.0,70,0.00,,---,0.00,267.00,VWS V14.01,2013-06-30 13:04:00,
2013-06-30 08:09:00,66.1,55.7,29.94,NNE,19,8.0,10.0,69,0.00,,---,0.00,283.00,VWS V14.01,2013-06-30 13:09:00,
2013-06-30 08:14:00,65.8,55.8,29.94,NNE,24,6.0,12.0,70,0.00,,---,0.00,299.00,VWS V14.01,2013-06-30 13:14:00,
2013-06-30 08:19:00,66.0,55.5,29.95,North,355,7.0,12.0,69,0.00,,---,0.00,316.00,VWS V14.01,2013-06-30 13:19:00,
2013-06-30 08:24:00,66.4,55.9,29.95,NNW,338,6.0,12.0,69,0.00,,---,0.00,332.00,VWS V14.01,2013-06-30 13:24:00,
2013-06-30 08:29:00,66.4,55.5,29.95,NNW,342,7.0,12.0,68,0.00,,---,0.00,345.00,VWS V14.01,2013-06-30 13:29:00,
2013-06-30 08:30:00,66.4,55.5,29.95,NNW,340,5.0,12.0,68,0.00,,---,0.00,346.00,VWS V14.01,2013-06-30 13:30:00,
2013-06-30 08:34:00,66.8,55.9,29.95,NW,306,2.0,8.0,68,0.00,,---,0.00,359.00,VWS V14.01,2013-06-30 13:34:00,
2013-06-30 08:39:00,67.1,56.2,29.95,NW,326,1.0,8.0,68,0.00,,---,0.00,371.00,VWS V14.01,2013-06-30 13:39:00,
2013-06-30 08:44:00,67.9,56.5,29.95,NNE,12,3.0,8.0,67,0.00,,---,0.00,387.00,VWS V14.01,2013-06-30 13:44:00,
2013-06-30 08:49:00,68.6,56.4,29.95,North,5,6.0,8.0,65,0.00,,---,0.00,401.00,VWS V14.01,2013-06-30 13:49:00,
2013-06-30 08:54:00,68.9,56.2,29.95,NNW,329,5.0,8.0,64,0.00,,---,0.00,417.00,VWS V14.01,2013-06-30 13:54:00,
2013-06-30 08:59:00,69.1,56.4,29.95,North,355,6.0,8.0,64,0.00,,---,0.00,432.00,VWS V14.01,2013-06-30 13:59:00,
2013-06-30 09:00:00,69.1,56.4,29.95,North,355,5.0,8.0,64,0.00,,---,0.00,436.00,VWS V14.01,2013-06-30 14:00:00,
2013-06-30 09:04:00,69.4,56.3,29.95,NNW,346,6.0,7.0,63,0.00,,---,0.00,443.00,VWS V14.01,2013-06-30 14:04:00,
2013-06-30 09:09:00,69.8,56.7,29.95,NNE,15,3.0,7.0,63,0.00,,---,0.00,461.00,VWS V14.01,2013-06-30 14:09:00,
2013-06-30 09:14:00,70.3,56.7,29.95,North,5,4.0,8.0,62,0.00,,---,0.00,475.00,VWS V14.01,2013-06-30 14:14:00,
2013-06-30 09:19:00,70.6,56.5,29.95,NNE,22,4.0,8.0,61,0.00,,---,0.00,490.00,VWS V14.01,2013-06-30 14:19:00,
2013-06-30 09:24:00,70.4,56.8,29.95,North,360,6.0,10.0,62,0.00,,---,0.00,506.00,VWS V14.01,2013-06-30 14:24:00,
2013-06-30 09:29:00,70.3,56.7,29.95,NE,43,6.0,10.0,62,0.00,,---,0.00,520.00,VWS V14.01,2013-06-30 14:29:00,
2013-06-30 09:30:00,70.3,56.7,29.95,ENE,65,6.0,10.0,62,0.00,,---,0.00,522.00,VWS V14.01,2013-06-30 14:30:00,
2013-06-30 09:34:00,70.6,57.0,29.95,North,5,5.0,9.0,62,0.00,,---,0.00,529.00,VWS V14.01,2013-06-30 14:34:00,
2013-06-30 09:39:00,70.9,56.3,29.95,North,360,9.0,9.0,60,0.00,,---,0.00,543.00,VWS V14.01,2013-06-30 14:39:00,
2013-06-30 09:44:00,71.3,55.8,29.95,North,349,3.0,9.0,58,0.00,,---,0.00,552.00,VWS V14.01,2013-06-30 14:44:00,
2013-06-30 09:49:00,71.3,54.8,29.95,NNE,25,7.0,11.0,56,0.00,,---,0.00,550.00,VWS V14.01,2013-06-30 14:49:00,
2013-06-30 09:54:00,71.5,55.0,29.95,North,5,3.0,11.0,56,0.00,,---,0.00,534.00,VWS V14.01,2013-06-30 14:54:00,
2013-06-30 09:59:00,72.0,55.5,29.95,NE,51,4.0,11.0,56,0.00,,---,0.00,559.00,VWS V14.01,2013-06-30 14:59:00,
2013-06-30 10:00:00,72.0,56.0,29.95,NNE,22,4.0,11.0,57,0.00,,---,0.00,559.00,VWS V14.01,2013-06-30 15:00:00,
2013-06-30 10:04:00,72.3,55.2,29.95,North,355,4.0,8.0,55,0.00,,---,0.00,575.00,VWS V14.01,2013-06-30 15:04:00,
2013-06-30 10:09:00,72.7,55.6,29.95,North,5,6.0,10.0,55,0.00,,---,0.00,582.00,VWS V14.01,2013-06-30 15:09:00,
2013-06-30 10:14:00,72.8,55.7,29.95,NNW,344,4.0,10.0,55,0.00,,---,0.00,598.00,VWS V14.01,2013-06-30 15:14:00,
2013-06-30 10:19:00,73.0,54.9,29.95,NE,42,5.0,10.0,53,0.00,,---,0.00,617.00,VWS V14.01,2013-06-30 15:19:00,
2013-06-30 10:24:00,73.2,55.1,29.95,NNW,344,4.0,10.0,53,0.00,,---,0.00,631.00,VWS V14.01,2013-06-30 15:24:00,
2013-06-30 10:29:00,73.5,54.8,29.95,NE,49,6.0,10.0,52,0.00,,---,0.00,635.00,VWS V14.01,2013-06-30 15:29:00,
2013-06-30 10:30:00,73.5,54.8,29.95,ENE,72,5.0,10.0,52,0.00,,---,0.00,635.00,VWS V14.01,2013-06-30 15:30:00,
2013-06-30 10:34:00,73.7,55.0,29.95,NW,324,5.0,13.0,52,0.00,,---,0.00,647.00,VWS V14.01,2013-06-30 15:34:00,
2013-06-30 10:39:00,73.9,55.2,29.95,North,5,5.0,13.0,52,0.00,,---,0.00,649.00,VWS V14.01,2013-06-30 15:39:00,
2013-06-30 10:44:00,74.4,54.6,29.95,North,5,9.0,13.0,50,0.00,,---,0.00,661.00,VWS V14.01,2013-06-30 15:44:00,
2013-06-30 10:49:00,74.0,54.7,29.95,North,350,4.0,13.0,51,0.00,,---,0.00,664.00,VWS V14.01,2013-06-30 15:49:00,
2013-06-30 10:54:00,74.6,55.3,29.95,NE,39,7.0,13.0,51,0.00,,---,0.00,680.00,VWS V14.01,2013-06-30 15:54:00,
2013-06-30 10:59:00,74.4,54.6,29.95,North,355,8.0,15.0,50,0.00,,---,0.00,687.00,VWS V14.01,2013-06-30 15:59:00,
2013-06-30 11:00:00,74.4,54.6,29.95,NNE,13,8.0,15.0,50,0.00,,---,0.00,687.00,VWS V14.01,2013-06-30 16:00:00,
2013-06-30 11:04:00,74.2,53.8,29.94,NNW,336,6.0,19.0,49,0.00,,---,0.00,708.00,VWS V14.01,2013-06-30 16:04:00,
2013-06-30 11:09:00,74.9,54.5,29.94,NNE,23,6.0,19.0,49,0.00,,---,0.00,700.00,VWS V14.01,2013-06-30 16:09:00,
2013-06-30 11:14:00,75.1,54.1,29.94,North,355,9.0,19.0,48,0.00,,---,0.00,756.00,VWS V14.01,2013-06-30 16:14:00,
2013-06-30 11:19:00,75.8,54.7,29.95,NE,36,7.0,19.0,48,0.00,,---,0.00,766.00,VWS V14.01,2013-06-30 16:19:00,
2013-06-30 11:24:00,76.1,51.4,29.94,NNE,19,11.0,19.0,42,0.00,,---,0.00,752.00,VWS V14.01,2013-06-30 16:24:00,
2013-06-30 11:29:00,76.1,51.4,29.94,NNE,32,8.0,19.0,42,0.00,,---,0.00,844.00,VWS V14.01,2013-06-30 16:29:00,
2013-06-30 11:30:00,76.1,51.4,29.94,North,5,7.0,19.0,42,0.00,,---,0.00,844.00,VWS V14.01,2013-06-30 16:30:00,
2013-06-30 11:34:00,76.0,51.9,29.94,NE,48,18.0,21.0,43,0.00,,---,0.00,819.00,VWS V14.01,2013-06-30 16:34:00,
2013-06-30 11:39:00,75.8,51.7,29.94,NE,49,8.0,21.0,43,0.00,,---,0.00,877.00,VWS V14.01,2013-06-30 16:39:00,
2013-06-30 11:44:00,76.3,50.9,29.94,NE,34,19.0,21.0,41,0.00,,---,0.00,860.00,VWS V14.01,2013-06-30 16:44:00,
2013-06-30 11:49:00,76.5,51.7,29.94,NNE,27,16.0,21.0,42,0.00,,---,0.00,849.00,VWS V14.01,2013-06-30 16:49:00,
2013-06-30 11:54:00,76.5,51.7,29.94,North,355,17.0,23.0,42,0.00,,---,0.00,844.00,VWS V14.01,2013-06-30 16:54:00,
2013-06-30 12:00:00,77.4,53.2,29.94,ENE,63,13.0,23.0,43,0.00,,---,0.00,779.00,VWS V14.01,2013-06-30 17:00:00,
2013-06-30 12:05:00,76.3,52.8,29.94,NNE,24,8.0,21.0,44,0.00,,---,0.00,907.00,VWS V14.01,2013-06-30 17:05:00,
2013-06-30 12:10:00,76.8,51.3,29.94,NNE,29,8.0,21.0,41,0.00,,---,0.00,854.00,VWS V14.01,2013-06-30 17:10:00,
2013-06-30 12:15:00,76.7,51.2,29.94,NNE,31,9.0,25.0,41,0.00,,---,0.00,867.00,VWS V14.01,2013-06-30 17:15:00,
2013-06-30 12:20:00,77.0,50.9,29.94,North,11,9.0,25.0,40,0.00,,---,0.00,874.00,VWS V14.01,2013-06-30 17:20:00,
2013-06-30 12:25:00,77.2,50.3,29.94,North,355,15.0,25.0,39,0.00,,---,0.00,846.00,VWS V14.01,2013-06-30 17:25:00,
2013-06-30 12:30:00,77.2,51.0,29.93,NNE,18,20.0,20.0,40,0.00,,---,0.00,879.00,VWS V14.01,2013-06-30 17:30:00,
2013-06-30 12:35:00,76.7,50.6,29.93,NNE,32,10.0,21.0,40,0.00,,---,0.00,782.00,VWS V14.01,2013-06-30 17:35:00,
2013-06-30 12:40:00,76.8,51.3,29.93,NNE,13,22.0,27.0,41,0.00,,---,0.00,788.00,VWS V14.01,2013-06-30 17:40:00,
2013-06-30 12:45:00,76.8,49.3,29.93,NNW,327,13.0,27.0,38,0.00,,---,0.00,803.00,VWS V14.01,2013-06-30 17:45:00,
2013-06-30 12:50:00,77.6,52.1,29.93,North,9,5.0,27.0,41,0.00,,---,0.00,606.00,VWS V14.01,2013-06-30 17:50:00,
2013-06-30 12:55:00,77.4,49.8,29.93,NE,42,8.0,27.0,38,0.00,,---,0.00,826.00,VWS V14.01,2013-06-30 17:55:00,
2013-06-30 13:00:00,77.6,51.4,29.93,NE,39,9.0,11.0,40,0.00,,---,0.00,933.00,VWS V14.01,2013-06-30 18:00:00,
2013-06-30 13:05:00,77.9,50.3,29.93,North,350,7.0,22.0,38,0.00,,---,0.00,921.00,VWS V14.01,2013-06-30 18:05:00,
2013-06-30 13:10:00,77.9,50.3,29.93,NE,40,8.0,22.0,38,0.00,,---,0.00,334.00,VWS V14.01,2013-06-30 18:10:00,
2013-06-30 13:15:00,77.7,49.4,29.93,NNE,18,12.0,22.0,37,0.00,,---,0.00,1085.00,VWS V14.01,2013-06-30 18:15:00,
2013-06-30 13:20:00,78.1,51.2,29.93,North,355,15.0,22.0,39,0.00,,---,0.00,441.00,VWS V14.01,2013-06-30 18:20:00,
2013-06-30 13:25:00,77.9,48.1,29.92,ENE,62,6.0,22.0,35,0.00,,---,0.00,935.00,VWS V14.01,2013-06-30 18:25:00,
2013-06-30 13:30:00,77.4,49.8,29.92,NNE,28,14.0,18.0,38,0.00,,---,0.00,417.00,VWS V14.01,2013-06-30 18:30:00,
2013-06-30 13:35:00,77.6,50.0,29.92,NNE,25,5.0,18.0,38,0.00,,---,0.00,455.00,VWS V14.01,2013-06-30 18:35:00,
2013-06-30 13:40:00,77.7,50.1,29.92,NNE,15,17.0,22.0,38,0.00,,---,0.00,374.00,VWS V14.01,2013-06-30 18:40:00,
2013-06-30 13:45:00,77.6,50.0,29.92,ENE,57,12.0,22.0,38,0.00,,---,0.00,494.00,VWS V14.01,2013-06-30 18:45:00,
2013-06-30 13:50:00,77.4,49.8,29.92,NE,34,14.0,22.0,38,0.00,,---,0.00,320.00,VWS V14.01,2013-06-30 18:50:00,
2013-06-30 13:55:00,77.2,51.0,29.92,NE,35,9.0,22.0,40,0.00,,---,0.00,285.00,VWS V14.01,2013-06-30 18:55:00,
2013-06-30 14:00:00,77.9,49.6,29.92,NNE,15,10.0,20.0,37,0.00,,---,0.00,248.00,VWS V14.01,2013-06-30 19:00:00,
2013-06-30 14:05:00,78.6,50.2,29.92,North,355,11.0,20.0,37,0.00,,---,0.00,246.00,VWS V14.01,2013-06-30 19:05:00,
2013-06-30 14:10:00,78.5,48.6,29.92,NE,46,6.0,20.0,35,0.00,,---,0.00,264.00,VWS V14.01,2013-06-30 19:10:00,
2013-06-30 14:15:00,78.6,49.4,29.92,NE,53,11.0,20.0,36,0.00,,---,0.00,320.00,VWS V14.01,2013-06-30 19:15:00,
2013-06-30 14:20:00,78.3,50.6,29.92,North,5,18.0,21.0,38,0.00,,---,0.00,304.00,VWS V14.01,2013-06-30 19:20:00,
2013-06-30 14:25:00,78.3,50.6,29.92,NE,40,17.0,23.0,38,0.00,,---,0.00,239.00,VWS V14.01,2013-06-30 19:25:00,
2013-06-30 14:30:00,77.6,50.0,29.92,NNE,24,9.0,10.0,38,0.00,,---,0.00,232.00,VWS V14.01,2013-06-30 19:30:00,
2013-06-30 14:35:00,78.8,48.9,29.92,North,355,14.0,19.0,35,0.00,,---,0.00,320.00,VWS V14.01,2013-06-30 19:35:00,
2013-06-30 14:40:00,78.5,49.3,29.92,North,5,16.0,23.0,36,0.00,,---,0.00,278.00,VWS V14.01,2013-06-30 19:40:00,
2013-06-30 14:45:00,78.6,50.2,29.92,NE,36,8.0,23.0,37,0.00,,---,0.00,209.00,VWS V14.01,2013-06-30 19:45:00,
2013-06-30 14:50:00,79.0,51.2,29.92,NE,34,17.0,23.0,38,0.00,,---,0.00,329.00,VWS V14.01,2013-06-30 19:50:00,
2013-06-30 14:55:00,78.8,50.4,29.92,NNE,19,19.0,23.0,37,0.00,,---,0.00,278.00,VWS V14.01,2013-06-30 19:55:00,
2013-06-30 15:00:00,78.8,48.9,29.92,NW,321,16.0,16.0,35,0.00,,---,0.00,942.00,VWS V14.01,2013-06-30 20:00:00,
2013-06-30 15:05:00,78.8,48.9,29.92,NE,42,11.0,21.0,35,0.00,,---,0.00,956.00,VWS V14.01,2013-06-30 20:05:00,
2013-06-30 15:10:00,78.5,49.3,29.92,ENE,63,8.0,21.0,36,0.00,,---,0.00,487.00,VWS V14.01,2013-06-30 20:10:00,
2013-06-30 15:15:00,78.1,49.0,29.92,NE,53,10.0,25.0,36,0.00,,---,0.00,223.00,VWS V14.01,2013-06-30 20:15:00,
2013-06-30 15:20:00,78.6,50.2,29.92,NE,44,5.0,25.0,37,0.00,,---,0.00,206.00,VWS V14.01,2013-06-30 20:20:00,
2013-06-30 15:25:00,78.8,50.4,29.92,NNW,342,14.0,25.0,37,0.00,,---,0.00,837.00,VWS V14.01,2013-06-30 20:25:00,
2013-06-30 15:30:00,79.4,49.4,29.92,NE,39,10.0,17.0,35,0.00,,---,0.00,900.00,VWS V14.01,2013-06-30 20:30:00,
2013-06-30 15:35:00,78.8,50.4,29.92,ENE,75,6.0,20.0,37,0.00,,---,0.00,810.00,VWS V14.01,2013-06-30 20:35:00,
2013-06-30 15:40:00,78.8,49.6,29.92,NE,53,8.0,21.0,36,0.00,,---,0.00,789.00,VWS V14.01,2013-06-30 20:40:00,
2013-06-30 15:45:00,79.0,49.8,29.92,ENE,60,7.0,21.0,36,0.00,,---,0.00,186.00,VWS V14.01,2013-06-30 20:45:00,
2013-06-30 15:50:00,78.8,48.9,29.92,North,5,15.0,21.0,35,0.00,,---,0.00,759.00,VWS V14.01,2013-06-30 20:50:00,
2013-06-30 15:55:00,79.2,48.4,29.92,NNE,30,13.0,22.0,34,0.00,,---,0.00,735.00,VWS V14.01,2013-06-30 20:55:00,
2013-06-30 16:00:00,79.0,48.3,29.92,NNE,14,16.0,24.0,34,0.00,,---,0.00,675.00,VWS V14.01,2013-06-30 21:00:00,
2013-06-30 16:06:00,79.2,49.2,29.92,NNE,18,8.0,24.0,35,0.00,,---,0.00,666.00,VWS V14.01,2013-06-30 21:06:00,
2013-06-30 16:11:00,79.0,49.0,29.92,NNE,28,11.0,24.0,35,0.00,,---,0.00,584.00,VWS V14.01,2013-06-30 21:11:00,
2013-06-30 16:16:00,79.0,49.0,29.92,NNE,31,19.0,24.0,35,0.00,,---,0.00,670.00,VWS V14.01,2013-06-30 21:16:00,
2013-06-30 16:21:00,79.2,48.4,29.92,North,360,15.0,24.0,34,0.00,,---,0.00,633.00,VWS V14.01,2013-06-30 21:21:00,
2013-06-30 16:26:00,79.0,49.8,29.92,North,355,14.0,24.0,36,0.00,,---,0.00,643.00,VWS V14.01,2013-06-30 21:26:00,
2013-06-30 16:30:00,79.4,49.4,29.92,North,355,10.0,24.0,35,0.00,,---,0.00,613.00,VWS V14.01,2013-06-30 21:30:00,
2013-06-30 16:31:00,79.4,48.6,29.92,NNE,30,8.0,14.0,34,0.00,,---,0.00,615.00,VWS V14.01,2013-06-30 21:31:00,
2013-06-30 16:36:00,79.6,48.0,29.92,North,355,6.0,16.0,33,0.00,,---,0.00,612.00,VWS V14.01,2013-06-30 21:36:00,
2013-06-30 16:41:00,80.1,48.4,29.92,North,9,15.0,16.0,33,0.00,,---,0.00,631.00,VWS V14.01,2013-06-30 21:41:00,
2013-06-30 16:46:00,79.6,48.8,29.92,North,355,20.0,22.0,34,0.00,,---,0.00,589.00,VWS V14.01,2013-06-30 21:46:00,
2013-06-30 16:51:00,79.4,48.6,29.92,North,5,9.0,26.0,34,0.00,,---,0.00,557.00,VWS V14.01,2013-06-30 21:51:00,
2013-06-30 16:56:00,79.4,48.6,29.92,NNE,12,8.0,26.0,34,0.00,,---,0.00,571.00,VWS V14.01,2013-06-30 21:56:00,
2013-06-30 17:00:00,79.4,48.6,29.92,North,350,13.0,26.0,34,0.00,,---,0.00,536.00,VWS V14.01,2013-06-30 22:00:00,
2013-06-30 17:01:00,79.2,46.8,29.92,North,5,24.0,24.0,32,0.00,,---,0.00,524.00,VWS V14.01,2013-06-30 22:01:00,
2013-06-30 17:06:00,79.2,47.7,29.92,NE,40,14.0,24.0,33,0.00,,---,0.00,529.00,VWS V14.01,2013-06-30 22:06:00,
2013-06-30 17:11:00,79.2,47.7,29.92,NNE,24,6.0,25.0,33,0.00,,---,0.00,503.00,VWS V14.01,2013-06-30 22:11:00,
2013-06-30 17:16:00,79.2,47.7,29.92,ENE,64,13.0,25.0,33,0.00,,---,0.00,515.00,VWS V14.01,2013-06-30 22:16:00,
2013-06-30 17:21:00,79.0,46.7,29.92,NE,55,15.0,25.0,32,0.00,,---,0.00,492.00,VWS V14.01,2013-06-30 22:21:00,
2013-06-30 17:26:00,79.2,46.0,29.91,NNE,29,16.0,25.0,31,0.00,,---,0.00,471.00,VWS V14.01,2013-06-30 22:26:00,
2013-06-30 17:30:00,79.2,46.0,29.91,NE,42,18.0,25.0,31,0.00,,---,0.00,475.00,VWS V14.01,2013-06-30 22:30:00,
2013-06-30 17:31:00,79.0,45.8,29.92,NNE,24,11.0,20.0,31,0.00,,---,0.00,471.00,VWS V14.01,2013-06-30 22:31:00,
2013-06-30 17:36:00,79.0,46.7,29.92,NNE,13,21.0,23.0,32,0.00,,---,0.00,450.00,VWS V14.01,2013-06-30 22:36:00,
2013-06-30 17:41:00,79.0,46.7,29.92,NNW,343,9.0,23.0,32,0.00,,---,0.00,446.00,VWS V14.01,2013-06-30 22:41:00,
2013-06-30 17:46:00,79.0,47.5,29.92,NE,42,12.0,23.0,33,0.00,,---,0.00,432.00,VWS V14.01,2013-06-30 22:46:00,
2013-06-30 17:51:00,78.8,45.6,29.92,NE,51,12.0,23.0,31,0.00,,---,0.00,404.00,VWS V14.01,2013-06-30 22:51:00,
2013-06-30 17:56:00,78.8,45.6,29.92,North,351,15.0,23.0,31,0.00,,---,0.00,381.00,VWS V14.01,2013-06-30 22:56:00,
2013-06-30 18:00:00,79.0,45.8,29.92,NE,36,7.0,23.0,31,0.00,,---,0.00,364.00,VWS V14.01,2013-06-30 23:00:00,
2013-06-30 18:01:00,78.8,45.6,29.92,NE,42,11.0,19.0,31,0.00,,---,0.00,357.00,VWS V14.01,2013-06-30 23:01:00,
2013-06-30 18:06:00,78.6,45.5,29.92,NE,35,13.0,19.0,31,0.00,,---,0.00,353.00,VWS V14.01,2013-06-30 23:06:00,
2013-06-30 18:11:00,78.8,46.5,29.92,NNE,29,12.0,19.0,32,0.00,,---,0.00,345.00,VWS V14.01,2013-06-30 23:11:00,
2013-06-30 18:16:00,78.8,45.6,29.92,North,5,15.0,20.0,31,0.00,,---,0.00,330.00,VWS V14.01,2013-06-30 23:16:00,
2013-06-30 18:21:00,78.6,44.6,29.92,NE,42,14.0,21.0,30,0.00,,---,0.00,315.00,VWS V14.01,2013-06-30 23:21:00,
2013-06-30 18:26:00,78.5,43.6,29.92,NE,43,14.0,22.0,29,0.00,,---,0.00,301.00,VWS V14.01,2013-06-30 23:26:00,
2013-06-30 18:30:00,78.3,43.5,29.92,NNE,30,16.0,22.0,29,0.00,,---,0.00,283.00,VWS V14.01,2013-06-30 23:30:00,
2013-06-30 18:31:00,78.3,43.5,29.92,NNE,29,13.0,16.0,29,0.00,,---,0.00,287.00,VWS V14.01,2013-06-30 23:31:00,
2013-06-30 18:36:00,78.5,44.5,29.92,NNE,15,10.0,16.0,30,0.00,,---,0.00,279.00,VWS V14.01,2013-06-30 23:36:00,
2013-06-30 18:41:00,78.3,44.3,29.92,NE,51,8.0,16.0,30,0.00,,---,0.00,260.00,VWS V14.01,2013-06-30 23:41:00,
2013-06-30 18:46:00,78.5,47.0,29.92,NNE,32,11.0,16.0,33,0.00,,---,0.00,250.00,VWS V14.01,2013-06-30 23:46:00,
2013-06-30 18:51:00,78.3,48.4,29.92,North,11,8.0,17.0,35,0.00,,---,0.00,241.00,VWS V14.01,2013-06-30 23:51:00,
2013-06-30 18:56:00,78.1,48.2,29.92,NNE,24,11.0,17.0,35,0.00,,---,0.00,227.00,VWS V14.01,2013-06-30 23:56:00,
2013-06-30 19:00:00,78.1,49.0,29.92,NE,47,6.0,17.0,36,0.00,,---,0.00,220.00,VWS V14.01,2013-07-01 00:00:00,
2013-06-30 19:01:00,78.1,49.0,29.92,NE,42,12.0,14.0,36,0.00,,---,0.00,218.00,VWS V14.01,2013-07-01 00:01:00,
2013-06-30 19:06:00,77.9,49.6,29.92,ESE,104,6.0,14.0,37,0.00,,---,0.00,202.00,VWS V14.01,2013-07-01 00:06:00,
2013-06-30 19:11:00,77.6,50.7,29.92,NE,44,7.0,19.0,39,0.00,,---,0.00,179.00,VWS V14.01,2013-07-01 00:11:00,
2013-06-30 19:16:00,77.2,50.3,29.92,NE,52,11.0,19.0,39,0.00,,---,0.00,171.00,VWS V14.01,2013-07-01 00:16:00,
2013-06-30 19:21:00,77.0,50.9,29.92,NE,49,11.0,19.0,40,0.00,,---,0.00,155.00,VWS V14.01,2013-07-01 00:21:00,
2013-06-30 19:26:00,76.8,50.0,29.92,NNE,23,5.0,19.0,39,0.00,,---,0.00,148.00,VWS V14.01,2013-07-01 00:26:00,
2013-06-30 19:30:00,76.8,50.0,29.92,NE,53,6.0,19.0,39,0.00,,---,0.00,139.00,VWS V14.01,2013-07-01 00:30:00,
2013-06-30 19:31:00,76.8,50.0,29.92,NE,38,6.0,18.0,39,0.00,,---,0.00,135.00,VWS V14.01,2013-07-01 00:31:00,
2013-06-30 19:37:00,76.5,51.1,29.92,NE,42,7.0,18.0,41,0.00,,---,0.00,121.00,VWS V14.01,2013-07-01 00:37:00,
2013-06-30 19:42:00,76.5,51.1,29.93,NE,34,9.0,18.0,41,0.00,,---,0.00,113.00,VWS V14.01,2013-07-01 00:42:00,
2013-06-30 19:47:00,76.3,50.9,29.93,NE,43,10.0,18.0,41,0.00,,---,0.00,97.00,VWS V14.01,2013-07-01 00:47:00,
2013-06-30 19:52:00,76.1,50.0,29.93,NE,36,6.0,18.0,40,0.00,,---,0.00,88.00,VWS V14.01,2013-07-01 00:52:00,
2013-06-30 19:57:00,76.0,50.0,29.93,NNE,15,9.0,18.0,40,0.00,,---,0.00,81.00,VWS V14.01,2013-07-01 00:57:00,
2013-06-30 20:00:00,75.8,49.8,29.93,NE,56,7.0,18.0,40,0.00,,---,0.00,76.00,VWS V14.01,2013-07-01 01:00:00,
2013-06-30 20:02:00,75.8,50.5,29.93,NNE,27,6.0,11.0,41,0.00,,---,0.00,70.00,VWS V14.01,2013-07-01 01:02:00,
2013-06-30 20:07:00,75.6,50.3,29.93,NNE,20,9.0,11.0,41,0.00,,---,0.00,62.00,VWS V14.01,2013-07-01 01:07:00,
2013-06-30 20:12:00,75.4,50.1,29.93,NNE,19,11.0,14.0,41,0.00,,---,0.00,53.00,VWS V14.01,2013-07-01 01:12:00,
2013-06-30 20:17:00,75.3,50.0,29.94,NE,51,8.0,14.0,41,0.00,,---,0.00,46.00,VWS V14.01,2013-07-01 01:17:00,
2013-06-30 20:22:00,75.1,49.8,29.94,North,5,5.0,14.0,41,0.00,,---,0.00,37.00,VWS V14.01,2013-07-01 01:22:00,
2013-06-30 20:27:00,74.9,49.6,29.94,NE,40,7.0,14.0,41,0.00,,---,0.00,30.00,VWS V14.01,2013-07-01 01:27:00,
2013-06-30 20:30:00,74.7,49.5,29.94,NE,52,10.0,14.0,41,0.00,,---,0.00,26.00,VWS V14.01,2013-07-01 01:30:00,
2013-06-30 20:32:00,74.7,49.5,29.94,NE,41,6.0,10.0,41,0.00,,---,0.00,25.00,VWS V14.01,2013-07-01 01:32:00,
2013-06-30 20:37:00,74.4,49.2,29.94,North,11,9.0,13.0,41,0.00,,---,0.00,18.00,VWS V14.01,2013-07-01 01:37:00,
2013-06-30 20:42:00,74.2,49.7,29.94,NE,43,7.0,14.0,42,0.00,,---,0.00,14.00,VWS V14.01,2013-07-01 01:42:00,
2013-06-30 20:47:00,73.9,49.4,29.95,NE,51,8.0,14.0,42,0.00,,---,0.00,11.00,VWS V14.01,2013-07-01 01:47:00,
2013-06-30 20:48:00,73.9,49.4,29.95,NNE,30,8.0,14.0,42,0.00,,---,0.00,11.00,VWS V14.01,2013-07-01 01:48:00,
2013-06-30 20:53:00,73.7,49.8,29.95,NNE,33,5.0,14.0,43,0.00,,---,0.00,7.00,VWS V14.01,2013-07-01 01:53:00,
2013-06-30 20:58:00,73.3,50.1,29.95,North,355,4.0,14.0,44,0.00,,---,0.00,0.00,VWS V14.01,2013-07-01 01:58:00,
2013-06-30 21:00:00,73.2,50.0,29.95,NNE,19,3.0,14.0,44,0.00,,---,0.00,0.00,VWS V14.01,2013-07-01 02:00:00,
2013-06-30 21:03:00,73.0,50.4,29.95,NNE,17,5.0,8.0,45,0.00,,---,0.00,0.00,VWS V14.01,2013-07-01 02:03:00,
2013-06-30 21:08:00,72.8,50.2,29.95,North,9,3.0,10.0,45,0.00,,---,0.00,0.00,VWS V14.01,2013-07-01 02:08:00,
2013-06-30 21:13:00,72.7,50.2,29.95,NE,34,4.0,10.0,45,0.00,,---,0.00,0.00,VWS V14.01,2013-07-01 02:13:00,
2013-06-30 21:18:00,72.3,49.8,29.95,NNE,15,7.0,10.0,45,0.00,,---,0.00,0.00,VWS V14.01,2013-07-01 02:18:00,
2013-06-30 21:23:00,72.1,50.2,29.95,NE,38,6.0,10.0,46,0.00,,---,0.00,0.00,VWS V14.01,2013-07-01 02:23:00,
2013-06-30 21:28:00,71.8,49.9,29.96,NE,38,5.0,10.0,46,0.00,,---,0.00,0.00,VWS V14.01,2013-07-01 02:28:00,
2013-06-30 21:30:00,71.6,50.3,29.96,NE,46,4.0,10.0,47,0.00,,---,0.00,0.00,VWS V14.01,2013-07-01 02:30:00,
2013-06-30 21:33:00,71.5,50.2,29.95,NE,34,5.0,6.0,47,0.00,,---,0.00,0.00,VWS V14.01,2013-07-01 02:33:00,
2013-06-30 21:38:00,71.1,50.4,29.96,NNE,15,7.0,8.0,48,0.00,,---,0.00,0.00,VWS V14.01,2013-07-01 02:38:00,
2013-06-30 21:43:00,70.9,50.2,29.96,NNE,26,6.0,10.0,48,0.00,,---,0.00,0.00,VWS V14.01,2013-07-01 02:43:00,
2013-06-30 21:48:00,70.8,50.2,29.96,NNE,24,4.0,10.0,48,0.00,,---,0.00,0.00,VWS V14.01,2013-07-01 02:48:00,
2013-06-30 21:53:00,70.6,50.0,29.97,NNE,30,7.0,10.0,48,0.00,,---,0.00,0.00,VWS V14.01,2013-07-01 02:53:00,
2013-06-30 21:58:00,70.4,49.8,29.97,NNE,27,4.0,10.0,48,0.00,,---,0.00,0.00,VWS V14.01,2013-07-01 02:58:00,
2013-06-30 22:00:00,70.3,49.7,29.97,NE,42,3.0,10.0,48,0.00,,---,0.00,0.00,VWS V14.01,2013-07-01 03:00:00,
2013-06-30 22:03:00,70.3,49.7,29.97,NE,39,3.0,8.0,48,0.00,,---,0.00,0.00,VWS V14.01,2013-07-01 03:03:00,
2013-06-30 22:08:00,70.1,49.5,29.98,NE,42,3.0,9.0,48,0.00,,---,0.00,0.00,VWS V14.01,2013-07-01 03:08:00,
2013-06-30 22:13:00,69.9,49.9,29.98,NNE,18,5.0,9.0,49,0.00,,---,0.00,0.00,VWS V14.01,2013-07-01 03:13:00,
2013-06-30 22:18:00,69.8,49.8,29.98,NE,36,5.0,10.0,49,0.00,,---,0.00,0.00,VWS V14.01,2013-07-01 03:18:00,
2013-06-30 22:19:00,69.8,49.8,29.98,NE,36,5.0,10.0,49,0.00,,---,0.00,0.00,VWS V14.01,2013-07-01 03:19:00,
2013-06-30 22:24:00,69.6,49.6,29.98,NNE,32,5.0,10.0,49,0.00,,---,0.00,0.00,VWS V14.01,2013-07-01 03:24:00,
2013-06-30 22:29:00,69.4,50.0,29.98,NE,35,4.0,10.0,50,0.00,,---,0.00,0.00,VWS V14.01,2013-07-01 03:29:00,
2013-06-30 22:30:00,69.4,50.0,29.98,NE,35,5.0,10.0,50,0.00,,---,0.00,0.00,VWS V14.01,2013-07-01 03:30:00,
2013-06-30 22:34:00,69.3,49.9,29.99,NE,36,4.0,7.0,50,0.00,,---,0.00,0.00,VWS V14.01,2013-07-01 03:34:00,
2013-06-30 22:39:00,69.1,50.2,29.99,NNE,27,5.0,7.0,51,0.00,,---,0.00,0.00,VWS V14.01,2013-07-01 03:39:00,
2013-06-30 22:44:00,69.1,50.2,29.99,NNE,13,4.0,8.0,51,0.00,,---,0.00,0.00,VWS V14.01,2013-07-01 03:44:00,
2013-06-30 22:49:00,68.9,50.0,29.99,NNE,26,5.0,8.0,51,0.00,,---,0.00,0.00,VWS V14.01,2013-07-01 03:49:00,
2013-06-30 22:54:00,68.9,50.6,29.99,NE,46,5.0,8.0,52,0.00,,---,0.00,0.00,VWS V14.01,2013-07-01 03:54:00,
2013-06-30 22:59:00,68.8,50.5,29.99,NE,37,4.0,8.0,52,0.00,,---,0.00,0.00,VWS V14.01,2013-07-01 03:59:00,
2013-06-30 23:00:00,68.8,50.5,29.99,NE,37,4.0,8.0,52,0.00,,---,0.00,0.00,VWS V14.01,2013-07-01 04:00:00,
2013-06-30 23:01:00,68.6,50.3,29.99,NNE,32,2.0,6.0,52,0.00,,---,0.00,0.00,VWS V14.01,2013-07-01 04:01:00,
2013-06-30 23:06:00,68.4,50.1,29.99,NNE,15,5.0,7.0,52,0.00,,---,0.00,0.00,VWS V14.01,2013-07-01 04:06:00,
2013-06-30 23:11:00,68.3,50.5,29.99,NE,36,5.0,7.0,53,0.00,,---,0.00,0.00,VWS V14.01,2013-07-01 04:11:00,
2013-06-30 23:16:00,68.3,50.5,29.99,NNE,26,6.0,7.0,53,0.00,,---,0.00,0.00,VWS V14.01,2013-07-01 04:16:00,
2013-06-30 23:21:00,68.1,50.8,29.99,NE,40,5.0,8.0,54,0.00,,---,0.00,0.00,VWS V14.01,2013-07-01 04:21:00,
2013-06-30 23:26:00,67.9,50.7,29.99,NE,34,2.0,8.0,54,0.00,,---,0.00,0.00,VWS V14.01,2013-07-01 04:26:00,
2013-06-30 23:30:00,67.8,50.6,29.99,NE,34,4.0,8.0,54,0.00,,---,0.00,0.00,VWS V14.01,2013-07-01 04:30:00,
2013-06-30 23:32:00,67.8,51.1,29.99,NNE,33,4.0,6.0,55,0.00,,---,0.00,0.00,VWS V14.01,2013-07-01 04:32:00,
2013-06-30 23:36:00,67.6,50.9,29.99,NNE,29,5.0,7.0,55,0.00,,---,0.00,0.00,VWS V14.01,2013-07-01 04:36:00,
2013-06-30 23:42:00,67.4,50.7,30.00,NNE,23,3.0,7.0,55,0.00,,---,0.00,0.00,VWS V14.01,2013-07-01 04:42:00,
2013-06-30 23:47:00,67.3,51.1,29.99,NNE,30,4.0,7.0,56,0.00,,---,0.00,0.00,VWS V14.01,2013-07-01 04:47:00,
2013-06-30 23:52:00,67.3,51.1,29.99,NNE,30,2.0,7.0,56,0.00,,---,0.00,0.00,VWS V14.01,2013-07-01 04:52:00,
2013-06-30 23:57:00,67.1,50.9,29.99,NNE,28,4.0,7.0,56,0.00,,---,0.00,0.00,VWS V14.01,2013-07-01 04:57:00,